マクノート-ラッセル彗星

P/1994 X1 ( McNaught-Russell ) 2012

English version
Home page
Total 6,336 html files since Dec. 4, 1995
Updated on December 2, 2007

---------------------------------------------------------------------

・ プロフィール

・ 軌道要素

Perturbed ephemeris below is based on elements from MPC 24882. 

 Epoch = 2456280.50000 TT   T = 2456264.49652 TT
 Peri. =  171.19403         a =     6.9317363 AU
 Node  =  218.01048 J2000.0 e =     0.8153486
 Incl. =   29.07876         q =     1.2799546 AU

・ 星図

・ 光度変化

        m1 = 12.5 + 5 logΔ + 15 log r

---------------------------------------------------------------------

軌道要素はMinor Planet & Comet Ephemeris Serviceで計算したものです。
星図はステラナビゲータ Ver.8 (アストロアーツ) で作成したものです。
光度グラフはComet for Windowsで作成したものです。

---------------------------------------------------------------------

Copyright(C) 1995-2008 Seiichi Yoshida (comet@aerith.net). All rights reserved.